Flag for U.S.A. Weather past 2 weeks in Chattanooga, Tennessee, U.S.A.

Now
56 °F

Clear.


Feels Like: 56 °F
Forecast: 57 / 77 °F
Wind: No wind

Location: Lovell Field

Current Time: Oct 26, 2014 at 3:21:10 AM

Latest Report: Oct 26, 2014 at 2:53 AM


Visibility: 8 mi

Pressure: 30.01 "Hg

Humidity: 93%

Dew point: 54 °F

Location of ChattanoogaLocation

Historic Weather in Chattanooga — Graph

°F

Chattanooga temperature yesterday

Maximum temperature yesterday: 77 °F (at 4:53 PM)
Minimum temperature yesterday: 45 °F (at 4:53 AM)
Average temperature yesterday: 59 °F

Past Weeks' High & Low Weather Summary

 TemperatureHumidityPressure
High79 °F (Oct 11, 3:53 PM)100% (Oct 17, 4:53 AM)30.21 "Hg (Oct 17, 4:53 AM)
Low34 °F (Oct 17, 4:59 AM)35% (Oct 24, 4:53 PM)29.72 "Hg (Oct 14, 7:53 AM)
Average61 °F72%30.01 "Hg
* Reported Oct 11 1:53 AM — Oct 26 1:53 AM, Chattanooga, Weather by CustomWeather, © 2014

Note: Actual official high and low records may vary slightly from our data, if they occured in-between our weather recording intervals... More about our weather records

Advertising

Chattanooga weather history for previous 24 hours

 ConditionsComfort  
Time TempWeatherWind HumidityBarometerVisibility
1:53 AM
Oct 26
56 °FClear.No wind93%30.01 "Hg8 mi
12:53 AM58 °FClear.No wind90%30.02 "Hg7 mi
11:53 PM
Oct 25
60 °FPassing clouds.No wind90%30.03 "Hg8 mi
10:53 PM61 °FPassing clouds.No wind87%30.03 "Hg10 mi
9:53 PM64 °FPassing clouds.No wind78%30.03 "Hg10 mi
8:53 PM66 °FPassing clouds.No wind75%30.03 "Hg10 mi
7:53 PM67 °FBroken clouds.No wind71%30.02 "Hg10 mi
6:53 PM71 °FBroken clouds.No wind59%30.01 "Hg10 mi
5:53 PM74 °FPartly sunny.5 mph48%30.00 "Hg10 mi
4:53 PM77 °FScattered clouds.No wind42%30.01 "Hg10 mi
3:53 PM74 °FPassing clouds.7 mph45%30.00 "Hg10 mi
2:53 PM73 °FPassing clouds.No wind44%30.03 "Hg10 mi
1:53 PM71 °FSunny.No wind47%30.06 "Hg10 mi
12:53 PM69 °FSunny.3 mph49%30.08 "Hg10 mi
11:53 AM66 °FSunny.No wind54%30.10 "Hg10 mi
10:53 AM60 °FSunny.No wind65%30.11 "Hg10 mi
10:00 AM55 °FSunny.No wind77%30.13 "Hg10 mi
8:53 AM47 °FClear.No wind86%30.11 "Hg10 mi
7:53 AM45 °FClear.No wind90%30.11 "Hg10 mi
6:53 AM45 °FClear.No wind90%30.10 "Hg10 mi
5:53 AM46 °FClear.No wind89%30.08 "Hg10 mi
4:53 AM45 °FClear.No wind93%30.06 "Hg10 mi
3:53 AM46 °FClear.No wind89%30.06 "Hg10 mi
Weather by CustomWeather, © 2014

See weather overviewHow to use our weather pages